contact:dominique.lefevre@mio.osupytheas.fr, maurice.libes@osupytheas.fr, didier.mallarino@osupytheas.fr
Project:EMSO http://www.emso-fr.org/EMSO-France
Depth: 2436.0 m
Title:EMSO Ligure Ouest : Data MII capteur MICROCAT
DateTime_Computer,Latitude,Longitude,Temperature,Conductivity,Pressure,DateTime_Instrument
DateTime_Computer,Latitude,Longitude,degC,S m-1,dbar,DateTime_Instrument
2020-07-30T00:01:05Z,42.805,6.029,13.2979,4.59979,2470.11,2020-7-30T02:01:53Z
2020-07-30T00:04:08Z,42.805,6.029,13.2977,4.59978,2470.11,2020-7-30T02:04:56Z
2020-07-30T00:07:11Z,42.805,6.029,13.2980,4.59979,2470.147,2020-7-30T02:07:59Z
2020-07-30T00:10:15Z,42.805,6.029,13.2982,4.59979,2470.073,2020-7-30T02:11:03Z
2020-07-30T00:13:18Z,42.805,6.029,13.2978,4.59978,2470.124,2020-7-30T02:14:06Z
2020-07-30T00:16:21Z,42.805,6.029,13.2979,4.59978,2470.11,2020-7-30T02:17:09Z
2020-07-30T00:19:25Z,42.805,6.029,13.2979,4.59980,2470.124,2020-7-30T02:20:13Z
2020-07-30T00:22:28Z,42.805,6.029,13.2978,4.59979,2470.11,2020-7-30T02:23:16Z
2020-07-30T00:25:31Z,42.805,6.029,13.2980,4.59978,2470.124,2020-7-30T02:26:19Z
2020-07-30T00:28:35Z,42.805,6.029,13.2978,4.59985,2470.11,2020-7-30T02:29:23Z
2020-07-30T00:31:38Z,42.805,6.029,13.2976,4.59979,2470.11,2020-7-30T02:32:26Z
2020-07-30T00:34:41Z,42.805,6.029,13.2976,4.59979,2470.133,2020-7-30T02:35:29Z
2020-07-30T00:37:45Z,42.805,6.029,13.2982,4.59979,2470.124,2020-7-30T02:38:33Z
2020-07-30T00:40:48Z,42.805,6.029,13.2978,4.59979,2470.11,2020-7-30T02:41:36Z
2020-07-30T00:43:51Z,42.805,6.029,13.2979,4.59980,2470.147,2020-7-30T02:44:39Z
2020-07-30T00:46:55Z,42.805,6.029,13.2973,4.59979,2470.11,2020-7-30T02:47:43Z
2020-07-30T00:49:58Z,42.805,6.029,13.2974,4.59978,2470.133,2020-7-30T02:50:46Z
2020-07-30T00:53:01Z,42.805,6.029,13.2978,4.59980,2470.133,2020-7-30T02:53:49Z
2020-07-30T00:56:05Z,42.805,6.029,13.2976,4.59981,2470.133,2020-7-30T02:56:53Z
2020-07-30T00:59:08Z,42.805,6.029,13.2976,4.59980,2470.11,2020-7-30T02:59:56Z
2020-07-30T01:02:11Z,42.805,6.029,13.2976,4.59980,2470.124,2020-7-30T03:02:59Z
2020-07-30T01:05:14Z,42.805,6.029,13.2977,4.59980,2470.11,2020-7-30T03:06:02Z
2020-07-30T01:08:18Z,42.805,6.029,13.2980,4.59980,2470.133,2020-7-30T03:09:06Z
2020-07-30T01:11:21Z,42.805,6.029,13.2976,4.59980,2470.156,2020-7-30T03:12:09Z
2020-07-30T01:14:24Z,42.805,6.029,13.2976,4.59979,2470.11,2020-7-30T03:15:12Z
2020-07-30T01:17:27Z,42.805,6.029,13.2979,4.59979,2470.147,2020-7-30T03:18:15Z
2020-07-30T01:20:31Z,42.805,6.029,13.2981,4.59979,2470.11,2020-7-30T03:21:19Z
2020-07-30T01:23:34Z,42.805,6.029,13.2978,4.59980,2470.133,2020-7-30T03:24:22Z
2020-07-30T01:26:37Z,42.805,6.029,13.2978,4.59980,2470.124,2020-7-30T03:27:25Z
2020-07-30T01:29:40Z,42.805,6.029,13.2975,4.59986,2470.171,2020-7-30T03:30:28Z
2020-07-30T01:32:43Z,42.805,6.029,13.2977,4.59980,2470.133,2020-7-30T03:33:31Z
2020-07-30T01:35:47Z,42.805,6.029,13.2976,4.59981,2470.133,2020-7-30T03:36:35Z
2020-07-30T01:38:50Z,42.805,6.029,13.2983,4.59979,2470.147,2020-7-30T03:39:38Z
2020-07-30T01:41:53Z,42.805,6.029,13.2979,4.59980,2470.133,2020-7-30T03:42:41Z
2020-07-30T01:44:57Z,42.805,6.029,13.2980,4.59981,2470.156,2020-7-30T03:45:45Z
2020-07-30T01:48:00Z,42.805,6.029,13.2977,4.59981,2470.11,2020-7-30T03:48:48Z
2020-07-30T01:51:03Z,42.805,6.029,13.2978,4.59982,2470.156,2020-7-30T03:51:51Z
2020-07-30T01:54:06Z,42.805,6.029,13.2976,4.59980,2470.124,2020-7-30T03:54:54Z
2020-07-30T01:57:09Z,42.805,6.029,13.2980,4.59980,2470.194,2020-7-30T03:57:57Z
2020-07-30T02:00:13Z,42.805,6.029,13.2979,4.59983,2470.194,2020-7-30T04:01:01Z
2020-07-30T02:03:16Z,42.805,6.029,13.2981,4.59986,2470.171,2020-7-30T04:04:04Z
2020-07-30T02:06:19Z,42.805,6.029,13.2978,4.59982,2470.156,2020-7-30T04:07:07Z
2020-07-30T02:09:22Z,42.805,6.029,13.2979,4.59981,2470.147,2020-7-30T04:10:10Z
2020-07-30T02:12:26Z,42.805,6.029,13.2983,4.59981,2470.156,2020-7-30T04:13:14Z
2020-07-30T02:15:29Z,42.805,6.029,13.2980,4.59981,2470.194,2020-7-30T04:16:17Z
2020-07-30T02:18:32Z,42.805,6.029,13.2982,4.59986,2470.194,2020-7-30T04:19:20Z
2020-07-30T02:21:36Z,42.805,6.029,13.2982,4.59981,2470.194,2020-7-30T04:22:24Z
2020-07-30T02:24:39Z,42.805,6.029,13.2980,4.59982,2470.203,2020-7-30T04:25:27Z
2020-07-30T02:27:42Z,42.805,6.029,13.2979,4.59981,2470.194,2020-7-30T04:28:30Z
2020-07-30T02:30:45Z,42.805,6.029,13.2977,4.59981,2470.171,2020-7-30T04:31:33Z
2020-07-30T02:33:49Z,42.805,6.029,13.2979,4.59983,2470.18,2020-7-30T04:34:37Z
2020-07-30T02:36:52Z,42.805,6.029,13.2982,4.59983,2470.203,2020-7-30T04:37:40Z
2020-07-30T02:39:55Z,42.805,6.029,13.2976,4.59981,2470.18,2020-7-30T04:40:43Z
2020-07-30T02:42:58Z,42.805,6.029,13.2982,4.59985,2470.171,2020-7-30T04:43:46Z
2020-07-30T02:46:02Z,42.805,6.029,13.2979,4.59984,2470.18,2020-7-30T04:46:50Z
2020-07-30T02:49:05Z,42.805,6.029,13.2982,4.59985,2470.156,2020-7-30T04:49:53Z
2020-07-30T02:52:08Z,42.805,6.029,13.2978,4.59985,2470.171,2020-7-30T04:52:56Z
2020-07-30T02:55:11Z,42.805,6.029,13.2977,4.59983,2470.133,2020-7-30T04:55:59Z
2020-07-30T02:58:15Z,42.805,6.029,13.2981,4.59983,2470.156,2020-7-30T04:59:03Z
2020-07-30T03:01:18Z,42.805,6.029,13.2982,4.59984,2470.147,2020-7-30T05:02:06Z
2020-07-30T03:04:21Z,42.805,6.029,13.2982,4.59982,2470.156,2020-7-30T05:05:09Z
2020-07-30T03:07:24Z,42.805,6.029,13.2979,4.59985,2470.133,2020-7-30T05:08:12Z
2020-07-30T03:10:28Z,42.805,6.029,13.2982,4.59983,2470.156,2020-7-30T05:11:15Z
2020-07-30T03:13:31Z,42.805,6.029,13.2984,4.59983,2470.156,2020-7-30T05:14:19Z
2020-07-30T03:16:34Z,42.805,6.029,13.2982,4.59983,2470.156,2020-7-30T05:17:22Z
2020-07-30T03:19:37Z,42.805,6.029,13.2980,4.59983,2470.171,2020-7-30T05:20:25Z
2020-07-30T03:22:41Z,42.805,6.029,13.2979,4.59984,2470.194,2020-7-30T05:23:29Z
2020-07-30T03:25:44Z,42.805,6.029,13.2983,4.59985,2470.171,2020-7-30T05:26:32Z
2020-07-30T03:28:47Z,42.805,6.029,13.2981,4.59984,2470.194,2020-7-30T05:29:35Z
2020-07-30T03:31:50Z,42.805,6.029,13.2976,4.59984,2470.18,2020-7-30T05:32:38Z
2020-07-30T03:34:53Z,42.805,6.029,13.2981,4.59988,2470.156,2020-7-30T05:35:41Z
2020-07-30T03:37:57Z,42.805,6.029,13.2979,4.59984,2470.194,2020-7-30T05:38:45Z
2020-07-30T03:41:00Z,42.805,6.029,13.2982,4.59983,2470.156,2020-7-30T05:41:48Z
2020-07-30T03:44:03Z,42.805,6.029,13.2982,4.59983,2470.156,2020-7-30T05:44:51Z
2020-07-30T03:47:06Z,42.805,6.029,13.2983,4.59984,2470.18,2020-7-30T05:47:54Z
2020-07-30T03:50:10Z,42.805,6.029,13.2983,4.59984,2470.194,2020-7-30T05:50:58Z
2020-07-30T03:53:13Z,42.805,6.029,13.2982,4.59988,2470.217,2020-7-30T05:54:01Z
2020-07-30T03:56:16Z,42.805,6.029,13.2980,4.59986,2470.166,2020-7-30T05:57:04Z
2020-07-30T03:59:19Z,42.805,6.029,13.2984,4.59986,2470.156,2020-7-30T06:00:07Z
2020-07-30T04:02:23Z,42.805,6.029,13.2982,4.59987,2470.194,2020-7-30T06:03:10Z
2020-07-30T04:05:26Z,42.805,6.029,13.2986,4.59983,2470.194,2020-7-30T06:06:14Z
2020-07-30T04:08:29Z,42.805,6.029,13.2983,4.59984,2470.194,2020-7-30T06:09:17Z
2020-07-30T04:11:32Z,42.805,6.029,13.2981,4.59983,2470.133,2020-7-30T06:12:20Z
2020-07-30T04:14:36Z,42.805,6.029,13.2982,4.59984,2470.171,2020-7-30T06:15:23Z
2020-07-30T04:17:39Z,42.805,6.029,13.2985,4.59983,2470.171,2020-7-30T06:18:27Z
2020-07-30T04:20:42Z,42.805,6.029,13.2982,4.59986,2470.133,2020-7-30T06:21:30Z
2020-07-30T04:23:45Z,42.805,6.029,13.2982,4.59984,2470.156,2020-7-30T06:24:33Z
2020-07-30T04:26:48Z,42.805,6.029,13.2978,4.59984,2470.18,2020-7-30T06:27:36Z
2020-07-30T04:29:52Z,42.805,6.029,13.2979,4.59983,2470.147,2020-7-30T06:30:40Z
2020-07-30T04:32:55Z,42.805,6.029,13.2984,4.59985,2470.203,2020-7-30T06:33:43Z
2020-07-30T04:35:58Z,42.805,6.029,13.2982,4.59984,2470.156,2020-7-30T06:36:46Z
2020-07-30T04:39:01Z,42.805,6.029,13.2982,4.59984,2470.171,2020-7-30T06:39:49Z
2020-07-30T04:42:05Z,42.805,6.029,13.2985,4.59983,2470.18,2020-7-30T06:42:53Z
2020-07-30T04:45:08Z,42.805,6.029,13.2981,4.59984,2470.156,2020-7-30T06:45:56Z
2020-07-30T04:48:11Z,42.805,6.029,13.2982,4.59983,2470.171,2020-7-30T06:48:59Z
2020-07-30T04:51:15Z,42.805,6.029,13.2982,4.59984,2470.194,2020-7-30T06:52:02Z
2020-07-30T04:54:18Z,42.805,6.029,13.2982,4.59986,2470.147,2020-7-30T06:55:06Z
2020-07-30T04:57:21Z,42.805,6.029,13.2981,4.59986,2470.203,2020-7-30T06:58:09Z
2020-07-30T05:00:24Z,42.805,6.029,13.2981,4.59985,2470.18,2020-7-30T07:01:12Z
2020-07-30T05:03:27Z,42.805,6.029,13.2979,4.59986,2470.171,2020-7-30T07:04:15Z
2020-07-30T05:06:31Z,42.805,6.029,13.2983,4.59985,2470.18,2020-7-30T07:07:19Z
2020-07-30T05:09:34Z,42.805,6.029,13.2982,4.59985,2470.124,2020-7-30T07:10:22Z
2020-07-30T05:12:37Z,42.805,6.029,13.2983,4.59986,2470.171,2020-7-30T07:13:25Z
2020-07-30T05:15:40Z,42.805,6.029,13.2983,4.59986,2470.18,2020-7-30T07:16:28Z
2020-07-30T05:18:44Z,42.805,6.029,13.2983,4.59986,2470.133,2020-7-30T07:19:31Z
2020-07-30T05:21:47Z,42.805,6.029,13.2983,4.59985,2470.156,2020-7-30T07:22:35Z
2020-07-30T05:24:50Z,42.805,6.029,13.2980,4.59985,2470.156,2020-7-30T07:25:38Z
2020-07-30T05:27:53Z,42.805,6.029,13.2988,4.59986,2470.194,2020-7-30T07:28:41Z
2020-07-30T05:30:57Z,42.805,6.029,13.2983,4.59985,2470.133,2020-7-30T07:31:45Z
2020-07-30T05:34:00Z,42.805,6.029,13.2986,4.59986,2470.171,2020-7-30T07:34:48Z
2020-07-30T05:37:03Z,42.805,6.029,13.2985,4.59986,2470.18,2020-7-30T07:37:51Z
2020-07-30T05:40:06Z,42.805,6.029,13.2983,4.59986,2470.133,2020-7-30T07:40:54Z
2020-07-30T05:43:10Z,42.805,6.029,13.2985,4.59986,2470.147,2020-7-30T07:43:57Z
2020-07-30T05:46:13Z,42.805,6.029,13.2982,4.59987,2470.124,2020-7-30T07:47:01Z
2020-07-30T05:49:16Z,42.805,6.029,13.2983,4.59987,2470.096,2020-7-30T07:50:04Z
2020-07-30T05:52:19Z,42.805,6.029,13.2983,4.59987,2470.133,2020-7-30T07:53:07Z
2020-07-30T05:55:23Z,42.805,6.029,13.2986,4.59986,2470.11,2020-7-30T07:56:11Z
2020-07-30T05:58:26Z,42.805,6.029,13.2982,4.59987,2470.147,2020-7-30T07:59:14Z
2020-07-30T06:01:29Z,42.805,6.029,13.2989,4.59986,2470.11,2020-7-30T08:02:17Z
2020-07-30T06:04:32Z,42.805,6.029,13.2983,4.59986,2470.11,2020-7-30T08:05:20Z
2020-07-30T06:07:36Z,42.805,6.029,13.2983,4.59986,2470.133,2020-7-30T08:08:23Z
2020-07-30T06:10:39Z,42.805,6.029,13.2985,4.59986,2470.124,2020-7-30T08:11:27Z
2020-07-30T06:13:42Z,42.805,6.029,13.2985,4.59986,2470.133,2020-7-30T08:14:30Z
2020-07-30T06:16:46Z,42.805,6.029,13.2982,4.59986,2470.147,2020-7-30T08:17:34Z
2020-07-30T06:19:49Z,42.805,6.029,13.2984,4.59986,2470.124,2020-7-30T08:20:37Z
2020-07-30T06:22:52Z,42.805,6.029,13.2983,4.59987,2470.11,2020-7-30T08:23:40Z
2020-07-30T06:25:55Z,42.805,6.029,13.2986,4.59988,2470.133,2020-7-30T08:26:43Z
2020-07-30T06:28:59Z,42.805,6.029,13.2982,4.59986,2470.11,2020-7-30T08:29:47Z
2020-07-30T06:32:02Z,42.805,6.029,13.2984,4.59986,2470.124,2020-7-30T08:32:50Z
2020-07-30T06:35:05Z,42.805,6.029,13.2983,4.59985,2470.11,2020-7-30T08:35:53Z
2020-07-30T06:38:09Z,42.805,6.029,13.2985,4.59986,2470.124,2020-7-30T08:38:57Z
2020-07-30T06:41:12Z,42.805,6.029,13.2998,4.59996,2470.133,2020-7-30T08:42:00Z
2020-07-30T06:44:15Z,42.805,6.029,13.2984,4.59988,2470.133,2020-7-30T08:45:03Z
2020-07-30T06:47:18Z,42.805,6.029,13.2986,4.59988,2470.11,2020-7-30T08:48:06Z
2020-07-30T06:50:22Z,42.805,6.029,13.3001,4.59990,2470.124,2020-7-30T08:51:10Z
2020-07-30T06:53:25Z,42.805,6.029,13.3002,4.60002,2470.11,2020-7-30T08:54:13Z
2020-07-30T06:56:28Z,42.805,6.029,13.2996,4.59991,2470.124,2020-7-30T08:57:16Z
2020-07-30T06:59:32Z,42.805,6.029,13.3000,4.60000,2470.124,2020-7-30T09:00:19Z
2020-07-30T07:02:35Z,42.805,6.029,13.3000,4.60004,2470.087,2020-7-30T09:03:23Z
2020-07-30T07:05:38Z,42.805,6.029,13.2990,4.59990,2470.124,2020-7-30T09:06:26Z
2020-07-30T07:08:41Z,42.805,6.029,13.3000,4.60003,2470.11,2020-7-30T09:09:29Z
2020-07-30T07:11:44Z,42.805,6.029,13.3006,4.60006,2470.087,2020-7-30T09:12:32Z
2020-07-30T07:14:48Z,42.805,6.029,13.3001,4.60005,2470.124,2020-7-30T09:15:36Z
2020-07-30T07:17:51Z,42.805,6.029,13.2998,4.59990,2470.11,2020-7-30T09:18:39Z
2020-07-30T07:20:54Z,42.805,6.029,13.2991,4.59989,2470.11,2020-7-30T09:21:42Z
2020-07-30T07:23:57Z,42.805,6.029,13.2996,4.60000,2470.087,2020-7-30T09:24:45Z
2020-07-30T07:27:01Z,42.805,6.029,13.2995,4.60009,2470.1,2020-7-30T09:27:49Z
2020-07-30T07:30:04Z,42.805,6.029,13.2996,4.60006,2470.11,2020-7-30T09:30:52Z
2020-07-30T07:33:07Z,42.805,6.029,13.2996,4.59991,2470.1,2020-7-30T09:33:55Z
2020-07-30T07:36:10Z,42.805,6.029,13.3000,4.59996,2470.087,2020-7-30T09:36:58Z
2020-07-30T07:39:14Z,42.805,6.029,13.2998,4.60002,2470.087,2020-7-30T09:40:02Z
2020-07-30T07:42:17Z,42.805,6.029,13.2995,4.60001,2470.124,2020-7-30T09:43:05Z
2020-07-30T07:45:20Z,42.805,6.029,13.2998,4.60026,2470.087,2020-7-30T09:46:08Z
2020-07-30T07:48:23Z,42.805,6.029,13.3000,4.60011,2470.087,2020-7-30T09:49:11Z
2020-07-30T07:51:27Z,42.805,6.029,13.2987,4.60021,2470.11,2020-7-30T09:52:15Z
2020-07-30T07:54:30Z,42.805,6.029,13.2998,4.60025,2470.063,2020-7-30T09:55:18Z
2020-07-30T07:57:33Z,42.805,6.029,13.2990,4.60011,2470.063,2020-7-30T09:58:21Z
2020-07-30T08:00:36Z,42.805,6.029,13.2998,4.60023,2470.087,2020-7-30T10:01:24Z
2020-07-30T08:03:40Z,42.805,6.029,13.2991,4.60031,2470.1,2020-7-30T10:04:28Z
2020-07-30T08:06:43Z,42.805,6.029,13.2997,4.60018,2470.087,2020-7-30T10:07:31Z
2020-07-30T08:09:46Z,42.805,6.029,13.2997,4.60031,2470.053,2020-7-30T10:10:34Z
2020-07-30T08:12:50Z,42.805,6.029,13.3004,4.60031,2470.04,2020-7-30T10:13:37Z
2020-07-30T08:15:53Z,42.805,6.029,13.2998,4.60023,2470.087,2020-7-30T10:16:41Z
2020-07-30T08:18:56Z,42.805,6.029,13.2998,4.60011,2470.077,2020-7-30T10:19:44Z
2020-07-30T08:21:59Z,42.805,6.029,13.3007,4.60026,2470.077,2020-7-30T10:22:47Z
2020-07-30T08:25:02Z,42.805,6.029,13.2990,4.60009,2470.1,2020-7-30T10:25:50Z
2020-07-30T08:28:06Z,42.805,6.029,13.2996,4.60008,2470.04,2020-7-30T10:28:54Z
2020-07-30T08:31:09Z,42.805,6.029,13.2996,4.60028,2470.1,2020-7-30T10:31:57Z
2020-07-30T08:34:12Z,42.805,6.029,13.2990,4.60021,2470.053,2020-7-30T10:35:00Z
2020-07-30T08:37:15Z,42.805,6.029,13.2991,4.60010,2470.087,2020-7-30T10:38:03Z
2020-07-30T08:40:19Z,42.805,6.029,13.2990,4.60016,2470.087,2020-7-30T10:41:07Z
2020-07-30T08:43:22Z,42.805,6.029,13.2991,4.60009,2470.063,2020-7-30T10:44:10Z
2020-07-30T08:46:25Z,42.805,6.029,13.2996,4.60013,2470.04,2020-7-30T10:47:13Z
2020-07-30T08:49:28Z,42.805,6.029,13.2993,4.60004,2470.077,2020-7-30T10:50:16Z
2020-07-30T08:52:32Z,42.805,6.029,13.2989,4.60016,2470.053,2020-7-30T10:53:19Z
2020-07-30T08:55:35Z,42.805,6.029,13.2986,4.60012,2470.063,2020-7-30T10:56:23Z
2020-07-30T08:58:38Z,42.805,6.029,13.2990,4.60004,2469.993,2020-7-30T10:59:26Z
2020-07-30T09:01:41Z,42.805,6.029,13.2987,4.60010,2470.053,2020-7-30T11:02:29Z
2020-07-30T09:04:45Z,42.805,6.029,13.2992,4.59999,2470.04,2020-7-30T11:05:32Z
2020-07-30T09:07:48Z,42.805,6.029,13.2989,4.59999,2470.04,2020-7-30T11:08:36Z
2020-07-30T09:10:51Z,42.805,6.029,13.2989,4.60003,2470.063,2020-7-30T11:11:39Z
2020-07-30T09:13:54Z,42.805,6.029,13.2999,4.60010,2470.063,2020-7-30T11:14:42Z
2020-07-30T09:16:58Z,42.805,6.029,13.2990,4.60009,2470.087,2020-7-30T11:17:46Z
2020-07-30T09:20:01Z,42.805,6.029,13.2985,4.60006,2470.063,2020-7-30T11:20:49Z
2020-07-30T09:23:04Z,42.805,6.029,13.2987,4.60001,2470.063,2020-7-30T11:23:52Z
2020-07-30T09:26:07Z,42.805,6.029,13.2989,4.60009,2470.053,2020-7-30T11:26:55Z
2020-07-30T09:29:11Z,42.805,6.029,13.2993,4.60011,2470.063,2020-7-30T11:29:58Z
2020-07-30T09:32:14Z,42.805,6.029,13.2985,4.60014,2470.04,2020-7-30T11:33:02Z
2020-07-30T09:35:17Z,42.805,6.029,13.2993,4.60013,2470.04,2020-7-30T11:36:05Z
2020-07-30T09:38:20Z,42.805,6.029,13.2990,4.60010,2470.063,2020-7-30T11:39:08Z
2020-07-30T09:41:23Z,42.805,6.029,13.2986,4.60004,2470.04,2020-7-30T11:42:11Z
2020-07-30T09:44:27Z,42.805,6.029,13.2991,4.60001,2470.04,2020-7-30T11:45:15Z
2020-07-30T09:47:30Z,42.805,6.029,13.2992,4.60001,2470.053,2020-7-30T11:48:18Z
2020-07-30T09:50:33Z,42.805,6.029,13.2985,4.60002,2470.04,2020-7-30T11:51:21Z
2020-07-30T09:53:36Z,42.805,6.029,13.2990,4.60004,2470.063,2020-7-30T11:54:24Z
2020-07-30T09:56:40Z,42.805,6.029,13.2990,4.60009,2470.087,2020-7-30T11:57:28Z
2020-07-30T09:59:43Z,42.805,6.029,13.2989,4.60016,2470.04,2020-7-30T12:00:31Z
2020-07-30T10:02:46Z,42.805,6.029,13.2990,4.59999,2470.063,2020-7-30T12:03:34Z
2020-07-30T10:05:49Z,42.805,6.029,13.2988,4.60016,2470.077,2020-7-30T12:06:37Z
2020-07-30T10:08:53Z,42.805,6.029,13.2990,4.60006,2470.063,2020-7-30T12:09:41Z
2020-07-30T10:11:56Z,42.805,6.029,13.2987,4.60001,2470.087,2020-7-30T12:12:44Z
2020-07-30T10:14:59Z,42.805,6.029,13.2991,4.60011,2470.017,2020-7-30T12:15:47Z
2020-07-30T10:18:02Z,42.805,6.029,13.2989,4.59996,2470.017,2020-7-30T12:18:50Z
2020-07-30T10:21:06Z,42.805,6.029,13.2991,4.59994,2470.053,2020-7-30T12:21:54Z
2020-07-30T10:24:09Z,42.805,6.029,13.2986,4.59996,2470.063,2020-7-30T12:24:57Z
2020-07-30T10:27:12Z,42.805,6.029,13.2989,4.60000,2470.063,2020-7-30T12:28:00Z
2020-07-30T10:30:15Z,42.805,6.029,13.2996,4.59997,2470.053,2020-7-30T12:31:03Z
2020-07-30T10:33:19Z,42.805,6.029,13.2988,4.60001,2470.077,2020-7-30T12:34:06Z
2020-07-30T10:36:22Z,42.805,6.029,13.2991,4.59994,2470.04,2020-7-30T12:37:10Z
2020-07-30T10:39:25Z,42.805,6.029,13.2982,4.59996,2470.053,2020-7-30T12:40:13Z
2020-07-30T10:42:28Z,42.805,6.029,13.2990,4.60000,2470.053,2020-7-30T12:43:16Z
2020-07-30T10:45:31Z,42.805,6.029,13.2990,4.59996,2470.017,2020-7-30T12:46:19Z
2020-07-30T10:48:35Z,42.805,6.029,13.2983,4.59997,2470.04,2020-7-30T12:49:23Z
2020-07-30T10:51:38Z,42.805,6.029,13.2991,4.59993,2470.017,2020-7-30T12:52:26Z
2020-07-30T10:54:41Z,42.805,6.029,13.2988,4.59995,2470.063,2020-7-30T12:55:29Z
2020-07-30T10:57:44Z,42.805,6.029,13.2983,4.59992,2470.04,2020-7-30T12:58:32Z
2020-07-30T11:00:48Z,42.805,6.029,13.2984,4.59997,2470.063,2020-7-30T13:01:36Z
2020-07-30T11:03:51Z,42.805,6.029,13.2989,4.59996,2470.03,2020-7-30T13:04:39Z
2020-07-30T11:06:54Z,42.805,6.029,13.2986,4.60005,2470.063,2020-7-30T13:07:42Z
2020-07-30T11:09:58Z,42.805,6.029,13.2986,4.59996,2470.087,2020-7-30T13:10:46Z
2020-07-30T11:13:01Z,42.805,6.029,13.2991,4.60017,2470.063,2020-7-30T13:13:49Z
2020-07-30T11:16:04Z,42.805,6.029,13.2986,4.60001,2470.077,2020-7-30T13:16:52Z
2020-07-30T11:19:07Z,42.805,6.029,13.2996,4.60002,2470.04,2020-7-30T13:19:55Z
2020-07-30T11:22:11Z,42.805,6.029,13.2986,4.60006,2470.053,2020-7-30T13:22:59Z
2020-07-30T11:25:14Z,42.805,6.029,13.3000,4.60014,2470.04,2020-7-30T13:26:02Z
2020-07-30T11:28:18Z,42.805,6.029,13.2988,4.60019,2470.1,2020-7-30T13:29:06Z
2020-07-30T11:31:21Z,42.805,6.029,13.2991,4.60008,2470.017,2020-7-30T13:32:09Z
2020-07-30T11:34:24Z,42.805,6.029,13.2991,4.59999,2470.087,2020-7-30T13:35:12Z
2020-07-30T11:37:28Z,42.805,6.029,13.2994,4.59999,2470.063,2020-7-30T13:38:16Z
2020-07-30T11:40:31Z,42.805,6.029,13.2996,4.60001,2470.053,2020-7-30T13:41:19Z
2020-07-30T11:43:34Z,42.805,6.029,13.2986,4.60007,2470.1,2020-7-30T13:44:22Z
2020-07-30T11:46:37Z,42.805,6.029,13.2988,4.60006,2470.04,2020-7-30T13:47:25Z
2020-07-30T11:49:41Z,42.805,6.029,13.2986,4.59999,2470.04,2020-7-30T13:50:29Z
2020-07-30T11:52:44Z,42.805,6.029,13.2985,4.60013,2470.077,2020-7-30T13:53:32Z
2020-07-30T11:55:47Z,42.805,6.029,13.2992,4.59999,2470.063,2020-7-30T13:56:35Z
2020-07-30T11:58:50Z,42.805,6.029,13.2990,4.60000,2470.063,2020-7-30T13:59:38Z
2020-07-30T12:01:54Z,42.805,6.029,13.2988,4.60004,2470.04,2020-7-30T14:02:42Z
2020-07-30T12:04:57Z,42.805,6.029,13.2986,4.60000,2470.087,2020-7-30T14:05:45Z
2020-07-30T12:08:00Z,42.805,6.029,13.2988,4.59996,2470.063,2020-7-30T14:08:48Z
2020-07-30T12:11:03Z,42.805,6.029,13.2987,4.60011,2470.063,2020-7-30T14:11:51Z
2020-07-30T12:14:07Z,42.805,6.029,13.2983,4.59999,2470.087,2020-7-30T14:14:55Z
2020-07-30T12:17:10Z,42.805,6.029,13.2994,4.60007,2470.077,2020-7-30T14:17:58Z
2020-07-30T12:20:13Z,42.805,6.029,13.2990,4.60017,2470.063,2020-7-30T14:21:01Z
2020-07-30T12:23:17Z,42.805,6.029,13.2991,4.60002,2470.063,2020-7-30T14:24:05Z
2020-07-30T12:26:20Z,42.805,6.029,13.2986,4.59997,2470.077,2020-7-30T14:27:08Z
2020-07-30T12:29:23Z,42.805,6.029,13.2990,4.60006,2470.11,2020-7-30T14:30:11Z
2020-07-30T12:32:26Z,42.805,6.029,13.2993,4.60015,2470.087,2020-7-30T14:33:14Z
2020-07-30T12:35:29Z,42.805,6.029,13.2987,4.59992,2470.063,2020-7-30T14:36:17Z
2020-07-30T12:38:33Z,42.805,6.029,13.2983,4.59994,2470.1,2020-7-30T14:39:21Z
2020-07-30T12:41:36Z,42.805,6.029,13.2988,4.60008,2470.1,2020-7-30T14:42:24Z
2020-07-30T12:44:39Z,42.805,6.029,13.2992,4.60001,2470.11,2020-7-30T14:45:27Z
2020-07-30T12:47:43Z,42.805,6.029,13.2984,4.59992,2470.073,2020-7-30T14:48:31Z
2020-07-30T12:50:46Z,42.805,6.029,13.2984,4.60010,2470.1,2020-7-30T14:51:34Z
2020-07-30T12:53:49Z,42.805,6.029,13.2987,4.59998,2470.133,2020-7-30T14:54:37Z
2020-07-30T12:56:52Z,42.805,6.029,13.2987,4.59995,2470.1,2020-7-30T14:57:40Z
2020-07-30T12:59:56Z,42.805,6.029,13.2988,4.59997,2470.124,2020-7-30T15:00:44Z
2020-07-30T13:02:59Z,42.805,6.029,13.2986,4.60002,2470.124,2020-7-30T15:03:47Z
2020-07-30T13:06:02Z,42.805,6.029,13.2988,4.59996,2470.087,2020-7-30T15:06:50Z
2020-07-30T13:09:05Z,42.805,6.029,13.2986,4.60006,2470.11,2020-7-30T15:09:53Z
2020-07-30T13:12:09Z,42.805,6.029,13.2983,4.60002,2470.11,2020-7-30T15:12:57Z
2020-07-30T13:15:12Z,42.805,6.029,13.2980,4.59991,2470.087,2020-7-30T15:16:00Z
2020-07-30T13:18:15Z,42.805,6.029,13.2983,4.59995,2470.087,2020-7-30T15:19:03Z
2020-07-30T13:21:18Z,42.805,6.029,13.2986,4.59996,2470.087,2020-7-30T15:22:06Z
2020-07-30T13:24:22Z,42.805,6.029,13.2983,4.59992,2470.11,2020-7-30T15:25:10Z
2020-07-30T13:27:25Z,42.805,6.029,13.2987,4.59999,2470.147,2020-7-30T15:28:13Z
2020-07-30T13:30:28Z,42.805,6.029,13.2992,4.60002,2470.11,2020-7-30T15:31:16Z
2020-07-30T13:33:31Z,42.805,6.029,13.2983,4.59995,2470.133,2020-7-30T15:34:19Z
2020-07-30T13:36:35Z,42.805,6.029,13.2983,4.59994,2470.147,2020-7-30T15:37:23Z
2020-07-30T13:39:38Z,42.805,6.029,13.2987,4.59996,2470.124,2020-7-30T15:40:26Z
2020-07-30T13:42:41Z,42.805,6.029,13.2990,4.60004,2470.133,2020-7-30T15:43:29Z
2020-07-30T13:45:44Z,42.805,6.029,13.2980,4.59991,2470.124,2020-7-30T15:46:32Z
2020-07-30T13:48:48Z,42.805,6.029,13.2983,4.59991,2470.156,2020-7-30T15:49:36Z
2020-07-30T13:51:51Z,42.805,6.029,13.2981,4.59996,2470.133,2020-7-30T15:52:39Z
2020-07-30T13:54:54Z,42.805,6.029,13.2993,4.59992,2470.147,2020-7-30T15:55:42Z
2020-07-30T13:57:57Z,42.805,6.029,13.2984,4.59989,2470.147,2020-7-30T15:58:45Z
2020-07-30T14:01:01Z,42.805,6.029,13.2982,4.59991,2470.171,2020-7-30T16:01:49Z
2020-07-30T14:04:04Z,42.805,6.029,13.2983,4.59993,2470.124,2020-7-30T16:04:52Z
2020-07-30T14:07:07Z,42.805,6.029,13.2985,4.59987,2470.133,2020-7-30T16:07:55Z
2020-07-30T14:10:10Z,42.805,6.029,13.2983,4.59990,2470.194,2020-7-30T16:10:58Z
2020-07-30T14:13:14Z,42.805,6.029,13.2989,4.60005,2470.133,2020-7-30T16:14:02Z
2020-07-30T14:16:17Z,42.805,6.029,13.2986,4.59993,2470.133,2020-7-30T16:17:05Z
2020-07-30T14:19:20Z,42.805,6.029,13.2985,4.59999,2470.147,2020-7-30T16:20:08Z
2020-07-30T14:22:23Z,42.805,6.029,13.2987,4.59991,2470.156,2020-7-30T16:23:11Z
2020-07-30T14:25:27Z,42.805,6.029,13.2983,4.59990,2470.124,2020-7-30T16:26:15Z
2020-07-30T14:28:30Z,42.805,6.029,13.2989,4.60001,2470.18,2020-7-30T16:29:18Z
2020-07-30T14:31:33Z,42.805,6.029,13.2982,4.59990,2470.171,2020-7-30T16:32:21Z
2020-07-30T14:34:37Z,42.805,6.029,13.2989,4.60003,2470.147,2020-7-30T16:35:25Z
2020-07-30T14:37:40Z,42.805,6.029,13.2988,4.59996,2470.171,2020-7-30T16:38:28Z
2020-07-30T14:40:43Z,42.805,6.029,13.2985,4.59991,2470.171,2020-7-30T16:41:31Z
2020-07-30T14:43:46Z,42.805,6.029,13.2982,4.59991,2470.156,2020-7-30T16:44:34Z
2020-07-30T14:46:50Z,42.805,6.029,13.2983,4.59988,2470.156,2020-7-30T16:47:38Z
2020-07-30T14:49:53Z,42.805,6.029,13.2983,4.59992,2470.156,2020-7-30T16:50:41Z
2020-07-30T14:52:56Z,42.805,6.029,13.2982,4.59989,2470.203,2020-7-30T16:53:44Z
2020-07-30T14:55:59Z,42.805,6.029,13.2985,4.59989,2470.156,2020-7-30T16:56:47Z
2020-07-30T14:59:03Z,42.805,6.029,13.2989,4.60006,2470.18,2020-7-30T16:59:51Z
2020-07-30T15:02:06Z,42.805,6.029,13.2982,4.60000,2470.194,2020-7-30T17:02:54Z
2020-07-30T15:05:09Z,42.805,6.029,13.2988,4.59993,2470.227,2020-7-30T17:05:57Z
2020-07-30T15:08:12Z,42.805,6.029,13.2983,4.59996,2470.203,2020-7-30T17:09:00Z
2020-07-30T15:11:15Z,42.805,6.029,13.2991,4.60002,2470.194,2020-7-30T17:12:03Z
2020-07-30T15:14:19Z,42.805,6.029,13.2984,4.59988,2470.171,2020-7-30T17:15:07Z